GIA1105 WAAA-WIMM

Flight info

Callsign GIA1105
Flight time 2h 57m
Altitude 38000
Route GURNI W35 PNK L504 OBDOS M774 OTLAL DCT TPG A464 IRTAD DCT SAMKO R469 ASUNA/N0497F390 L762 MIBEL/N0495F400 L762 AKPAG
Aircraft B77W/H-SDE1E2E3FGHIJ2J3J4J5M1RWXY/LB1D1

Departure

Time 2026-04-24 06:53
Airport Sultan Hasanuddin International Airport (WAAA)

Arrival

Time 2026-04-24 09:50
Airport Kualanamu International Airport (WIMM)
Time Latitude Longitude Altitude Speed Heading
2026-04-24 05:35 -5.07816 119.54724 77 ft 0 kts 300°
2026-04-24 06:38 -5.07821 119.54733 78 ft 2 kts 300°
2026-04-24 06:38 -5.07829 119.54745 78 ft 2 kts 300°
2026-04-24 06:38 -5.07836 119.54758 78 ft 1 kts 300°
2026-04-24 06:38 -5.07841 119.54767 78 ft 2 kts 289°
2026-04-24 06:39 -5.07842 119.54781 78 ft 2 kts 256°
2026-04-24 06:39 -5.07836 119.54795 78 ft 2 kts 230°
2026-04-24 06:39 -5.07829 119.54802 78 ft 0 kts 211°
2026-04-24 06:39 -5.07824 119.54805 78 ft 0 kts 210°
2026-04-24 06:43 -5.07825 119.54804 77 ft 0 kts 210°
2026-04-24 06:43 -5.07836 119.54798 77 ft 4 kts 210°
2026-04-24 06:44 -5.07885 119.54770 77 ft 10 kts 210°
2026-04-24 06:44 -5.07939 119.54739 77 ft 6 kts 210°
2026-04-24 06:44 -5.07989 119.54736 77 ft 7 kts 149°
2026-04-24 06:44 -5.08024 119.54782 77 ft 8 kts 121°
2026-04-24 06:45 -5.08055 119.54833 77 ft 6 kts 121°
2026-04-24 06:45 -5.08089 119.54848 78 ft 6 kts 192°
2026-04-24 06:45 -5.08158 119.54818 77 ft 15 kts 208°
2026-04-24 06:45 -5.08268 119.54754 77 ft 21 kts 211°
2026-04-24 06:46 -5.08396 119.54681 77 ft 12 kts 210°
2026-04-24 06:46 -5.08482 119.54631 77 ft 12 kts 210°
2026-04-24 06:46 -5.08542 119.54597 77 ft 11 kts 210°
2026-04-24 06:46 -5.08637 119.54541 76 ft 18 kts 210°
2026-04-24 06:47 -5.08748 119.54478 76 ft 16 kts 210°
2026-04-24 06:47 -5.08825 119.54432 76 ft 13 kts 210°
2026-04-24 06:47 -5.08921 119.54378 76 ft 16 kts 210°
2026-04-24 06:47 -5.09015 119.54323 76 ft 9 kts 210°
2026-04-24 06:48 -5.09065 119.54295 76 ft 8 kts 210°
2026-04-24 06:48 -5.09126 119.54279 76 ft 5 kts 170°
2026-04-24 06:48 -5.09158 119.54301 76 ft 2 kts 124°
2026-04-24 06:48 -5.09159 119.54304 76 ft 0 kts 122°
2026-04-24 06:49 -5.09161 119.54306 76 ft 2 kts 122°
2026-04-24 06:50 -5.09184 119.54346 76 ft 10 kts 118°
2026-04-24 06:50 -5.09204 119.54391 76 ft 4 kts 101°
2026-04-24 06:50 -5.09193 119.54422 76 ft 5 kts 45°
2026-04-24 06:50 -5.09164 119.54441 76 ft 0 kts 30°
2026-04-24 06:52 -5.09132 119.54460 76 ft 23 kts 30°
2026-04-24 06:52 -5.08727 119.54693 77 ft 108 kts 29°
2026-04-24 06:52 -5.07849 119.55202 83 ft 180 kts 27°
2026-04-24 06:52 -5.06662 119.55893 551 ft 208 kts 28°
2026-04-24 06:53 -5.05335 119.56525 1526 ft 214 kts 10°
2026-04-24 06:53 -5.03867 119.56551 2229 ft 220 kts 343°
2026-04-24 06:53 -5.02338 119.56115 2840 ft 237 kts 346°
2026-04-24 06:53 -5.00626 119.55917 3489 ft 255 kts 355°
2026-04-24 06:54 -4.98800 119.55876 4170 ft 270 kts 358°
2026-04-24 06:54 -4.96922 119.55866 5054 ft 275 kts 358°
2026-04-24 06:54 -4.95009 119.55709 5947 ft 278 kts 350°
2026-04-24 06:54 -4.93090 119.55350 6819 ft 281 kts 348°
2026-04-24 06:55 -4.91184 119.54970 7686 ft 285 kts 349°
2026-04-24 06:55 -4.89227 119.54586 8667 ft 289 kts 349°
2026-04-24 06:55 -4.87253 119.54202 9642 ft 293 kts 349°
2026-04-24 06:55 -4.85217 119.53791 10393 ft 303 kts 346°
2026-04-24 06:56 -4.83155 119.53109 11147 ft 318 kts 336°
2026-04-24 06:56 -4.81144 119.52043 11617 ft 336 kts 327°
2026-04-24 06:56 -4.79279 119.50580 12089 ft 353 kts 317°
2026-04-24 06:56 -4.77619 119.48683 12602 ft 370 kts 307°
2026-04-24 06:57 -4.76310 119.46411 13161 ft 387 kts 295°
2026-04-24 06:57 -4.75428 119.43788 13795 ft 403 kts 284°
2026-04-24 06:57 -4.75021 119.40970 14423 ft 418 kts 276°
2026-04-24 06:57 -4.74661 119.38067 15244 ft 426 kts 280°
2026-04-24 06:58 -4.74104 119.35165 16143 ft 430 kts 284°
2026-04-24 06:58 -4.73386 119.32240 16746 ft 438 kts 286°
2026-04-24 06:58 -4.72543 119.29269 16900 ft 439 kts 288°
2026-04-24 06:58 -4.71641 119.26354 16904 ft 437 kts 289°
2026-04-24 06:59 -4.70694 119.23453 16902 ft 437 kts 290°
2026-04-24 06:59 -4.69727 119.20594 16891 ft 437 kts 290°
2026-04-24 06:59 -4.68727 119.17706 16887 ft 436 kts 290°
2026-04-24 06:59 -4.67721 119.14856 16877 ft 437 kts 291°
2026-04-24 07:00 -4.66702 119.12003 16870 ft 437 kts 291°
2026-04-24 07:00 -4.65650 119.09085 17083 ft 451 kts 291°
2026-04-24 07:00 -4.64581 119.06140 18088 ft 451 kts 291°
2026-04-24 07:00 -4.63516 119.03217 19215 ft 447 kts 291°
2026-04-24 07:01 -4.62451 119.00303 19985 ft 453 kts 291°
2026-04-24 07:01 -4.61354 118.97309 20607 ft 461 kts 291°
2026-04-24 07:01 -4.60244 118.94288 21319 ft 466 kts 291°
2026-04-24 07:01 -4.59129 118.91251 22082 ft 469 kts 291°
2026-04-24 07:02 -4.57993 118.88162 22792 ft 474 kts 291°
2026-04-24 07:02 -4.56838 118.85025 23415 ft 481 kts 291°
2026-04-24 07:02 -4.55678 118.81874 24037 ft 487 kts 291°
2026-04-24 07:02 -4.54508 118.78700 24664 ft 493 kts 291°
2026-04-24 07:03 -4.53317 118.75468 25315 ft 498 kts 291°
2026-04-24 07:03 -4.52117 118.72207 25974 ft 502 kts 291°
2026-04-24 07:03 -4.50909 118.68922 26602 ft 507 kts 291°
2026-04-24 07:03 -4.49688 118.65604 27220 ft 513 kts 291°
2026-04-24 07:04 -4.48448 118.62231 27826 ft 518 kts 291°
2026-04-24 07:04 -4.47201 118.58838 28445 ft 522 kts 291°
2026-04-24 07:04 -4.45945 118.55427 29081 ft 527 kts 291°
2026-04-24 07:04 -4.44685 118.52004 29860 ft 527 kts 291°
2026-04-24 07:05 -4.43415 118.48556 30814 ft 524 kts 291°
2026-04-24 07:05 -4.42169 118.45172 31732 ft 520 kts 291°
2026-04-24 07:05 -4.40913 118.41763 32574 ft 518 kts 291°
2026-04-24 07:05 -4.39681 118.38416 33428 ft 517 kts 290°
2026-04-24 07:06 -4.38434 118.35024 34297 ft 515 kts 290°
2026-04-24 07:06 -4.37206 118.31678 35150 ft 512 kts 290°
2026-04-24 07:06 -4.35981 118.28345 35975 ft 510 kts 290°
2026-04-24 07:06 -4.34756 118.25010 36687 ft 508 kts 290°
2026-04-24 07:07 -4.33529 118.21671 37248 ft 509 kts 290°
2026-04-24 07:07 -4.32313 118.18364 37770 ft 509 kts 290°
2026-04-24 07:07 -4.29806 118.11545 37848 ft 510 kts 290°
2026-04-24 07:08 -4.27315 118.04774 37849 ft 509 kts 290°
2026-04-24 07:08 -4.24860 117.98101 37847 ft 508 kts 290°
2026-04-24 07:09 -4.22398 117.91404 37849 ft 509 kts 290°
2026-04-24 07:09 -4.19945 117.84740 37848 ft 508 kts 290°
2026-04-24 07:10 -4.17516 117.78145 37849 ft 508 kts 290°
2026-04-24 07:10 -4.15058 117.71475 37848 ft 507 kts 290°
2026-04-24 07:11 -4.12608 117.64829 37849 ft 508 kts 290°
2026-04-24 07:11 -4.10161 117.58188 37850 ft 508 kts 290°
2026-04-24 07:12 -4.07709 117.51540 37853 ft 509 kts 290°
2026-04-24 07:12 -4.05255 117.44884 37856 ft 507 kts 290°
2026-04-24 07:13 -4.02791 117.38204 37863 ft 507 kts 290°
2026-04-24 07:13 -4.00343 117.31571 37859 ft 506 kts 291°
2026-04-24 07:14 -3.97991 117.24934 37860 ft 507 kts 285°
2026-04-24 07:14 -3.96443 117.18020 37868 ft 508 kts 282°
2026-04-24 07:15 -3.94977 117.11138 37868 ft 506 kts 282°
2026-04-24 07:15 -3.93502 117.04230 37867 ft 506 kts 283°
2026-04-24 07:16 -3.92040 116.97401 37870 ft 505 kts 283°
2026-04-24 07:16 -3.90552 116.90448 37869 ft 506 kts 283°
2026-04-24 07:17 -3.89076 116.83559 37868 ft 505 kts 282°
2026-04-24 07:17 -3.87598 116.76666 37869 ft 506 kts 282°
2026-04-24 07:18 -3.86114 116.69748 37870 ft 506 kts 282°
2026-04-24 07:18 -3.84635 116.62859 37870 ft 506 kts 282°
2026-04-24 07:19 -3.83155 116.55968 37871 ft 506 kts 282°
2026-04-24 07:19 -3.81677 116.49087 37871 ft 505 kts 282°
2026-04-24 07:20 -3.80197 116.42199 37867 ft 505 kts 282°
2026-04-24 07:20 -3.78714 116.35305 37863 ft 506 kts 282°
2026-04-24 07:21 -3.77229 116.28402 37851 ft 506 kts 282°
2026-04-24 07:21 -3.75744 116.21501 37850 ft 506 kts 282°
2026-04-24 07:22 -3.74259 116.14603 37852 ft 505 kts 282°
2026-04-24 07:22 -3.72778 116.07724 37851 ft 505 kts 282°
2026-04-24 07:23 -3.71297 116.00851 37851 ft 505 kts 282°
2026-04-24 07:23 -3.69824 115.94015 37849 ft 505 kts 283°
2026-04-24 07:24 -3.68327 115.87075 37849 ft 505 kts 283°
2026-04-24 07:24 -3.66848 115.80210 37849 ft 506 kts 282°
2026-04-24 07:25 -3.65360 115.73318 37848 ft 505 kts 283°
2026-04-24 07:25 -3.63867 115.66401 37852 ft 505 kts 282°
2026-04-24 07:26 -3.62384 115.59534 37854 ft 505 kts 283°
2026-04-24 07:26 -3.60899 115.52663 37856 ft 504 kts 283°
2026-04-24 07:27 -3.59415 115.45795 37861 ft 506 kts 283°
2026-04-24 07:27 -3.57928 115.38917 37866 ft 506 kts 283°
2026-04-24 07:28 -3.56434 115.32010 37865 ft 505 kts 283°
2026-04-24 07:28 -3.54946 115.25136 37871 ft 504 kts 283°
2026-04-24 07:29 -3.53460 115.18267 37876 ft 505 kts 283°
2026-04-24 07:29 -3.51957 115.11326 37877 ft 504 kts 283°
2026-04-24 07:30 -3.50473 115.04475 37874 ft 505 kts 283°
2026-04-24 07:30 -3.48977 114.97571 37868 ft 505 kts 283°
2026-04-24 07:31 -3.47483 114.90681 37864 ft 505 kts 283°
2026-04-24 07:31 -3.45997 114.83829 37861 ft 505 kts 283°
2026-04-24 07:32 -3.44512 114.76993 37857 ft 504 kts 284°
2026-04-24 07:32 -3.41922 114.70448 37862 ft 503 kts 301°
2026-04-24 07:33 -3.38275 114.64523 37865 ft 502 kts 303°
2026-04-24 07:33 -3.34551 114.58567 37870 ft 501 kts 303°
2026-04-24 07:34 -3.30856 114.52660 37867 ft 502 kts 303°
2026-04-24 07:34 -3.27121 114.46693 37859 ft 501 kts 303°
2026-04-24 07:35 -3.23432 114.40801 37857 ft 502 kts 303°
2026-04-24 07:35 -3.19703 114.34845 37854 ft 501 kts 303°
2026-04-24 07:36 -3.16012 114.28953 37849 ft 502 kts 303°
2026-04-24 07:36 -3.12292 114.23014 37844 ft 502 kts 303°
2026-04-24 07:37 -3.08568 114.17072 37849 ft 502 kts 303°
2026-04-24 07:37 -3.04868 114.11167 37851 ft 502 kts 303°
2026-04-24 07:38 -3.01147 114.05230 37847 ft 501 kts 303°
2026-04-24 07:38 -2.97430 113.99300 37849 ft 501 kts 303°
2026-04-24 07:39 -2.93710 113.93366 37850 ft 501 kts 303°
2026-04-24 07:39 -2.90004 113.87457 37851 ft 501 kts 303°
2026-04-24 07:40 -2.86307 113.81561 37852 ft 501 kts 303°
2026-04-24 07:40 -2.82599 113.75648 37853 ft 501 kts 303°
2026-04-24 07:41 -2.78884 113.69727 37855 ft 501 kts 303°
2026-04-24 07:41 -2.75189 113.63838 37856 ft 501 kts 303°
2026-04-24 07:42 -2.71483 113.57931 37857 ft 502 kts 303°
2026-04-24 07:42 -2.67784 113.52037 37858 ft 500 kts 303°
2026-04-24 07:43 -2.64068 113.46116 37856 ft 500 kts 303°
2026-04-24 07:43 -2.60356 113.40203 37856 ft 501 kts 303°
2026-04-24 07:44 -2.56638 113.34263 37853 ft 500 kts 303°
2026-04-24 07:44 -2.52934 113.28343 37850 ft 502 kts 303°
2026-04-24 07:45 -2.49229 113.22423 37849 ft 501 kts 303°
2026-04-24 07:45 -2.45532 113.16515 37850 ft 500 kts 303°
2026-04-24 07:46 -2.41822 113.10590 37851 ft 501 kts 303°
2026-04-24 07:46 -2.38119 113.04675 37851 ft 500 kts 303°
2026-04-24 07:47 -2.34429 112.98782 37853 ft 501 kts 303°
2026-04-24 07:47 -2.30726 112.92869 37854 ft 501 kts 303°
2026-04-24 07:48 -2.27021 112.86954 37855 ft 502 kts 303°
2026-04-24 07:48 -2.23333 112.81065 37855 ft 500 kts 303°
2026-04-24 07:49 -2.19605 112.75114 37857 ft 501 kts 303°
2026-04-24 07:49 -2.15895 112.69193 37858 ft 500 kts 303°
2026-04-24 07:50 -2.12211 112.63315 37855 ft 501 kts 303°
2026-04-24 07:50 -2.08483 112.57365 37854 ft 502 kts 303°
2026-04-24 07:51 -2.04773 112.51447 37857 ft 501 kts 303°
2026-04-24 07:51 -2.01086 112.45564 37860 ft 501 kts 303°
2026-04-24 07:52 -1.97368 112.39632 37869 ft 501 kts 303°
2026-04-24 07:52 -1.93649 112.33697 37875 ft 501 kts 303°
2026-04-24 07:53 -1.89921 112.27753 37872 ft 502 kts 303°
2026-04-24 07:53 -1.86216 112.21845 37868 ft 503 kts 303°
2026-04-24 07:54 -1.82489 112.15902 37867 ft 504 kts 303°
2026-04-24 07:54 -1.78751 112.09943 37867 ft 503 kts 303°
2026-04-24 07:55 -1.75040 112.04028 37866 ft 503 kts 303°
2026-04-24 07:55 -1.71335 111.98120 37864 ft 503 kts 303°
2026-04-24 07:56 -1.67591 111.92152 37865 ft 503 kts 303°
2026-04-24 07:56 -1.63850 111.86188 37868 ft 504 kts 303°
2026-04-24 07:57 -1.60128 111.80256 37874 ft 504 kts 303°
2026-04-24 07:57 -1.56365 111.74259 37882 ft 504 kts 303°
2026-04-24 07:58 -1.52650 111.68340 37881 ft 503 kts 303°
2026-04-24 07:58 -1.48919 111.62395 37879 ft 503 kts 303°
2026-04-24 07:59 -1.45200 111.56477 37875 ft 504 kts 303°
2026-04-24 07:59 -1.41475 111.50573 37871 ft 504 kts 303°
2026-04-24 08:00 -1.37696 111.44584 37874 ft 504 kts 303°
2026-04-24 08:00 -1.33948 111.38644 37877 ft 505 kts 303°
2026-04-24 08:01 -1.30183 111.32678 37879 ft 505 kts 303°
2026-04-24 08:01 -1.26426 111.26723 37894 ft 504 kts 303°
2026-04-24 08:02 -1.22666 111.20764 37903 ft 504 kts 303°
2026-04-24 08:02 -1.18945 111.14868 37897 ft 504 kts 303°
2026-04-24 08:03 -1.15186 111.08913 37886 ft 505 kts 303°
2026-04-24 08:03 -1.11441 111.02979 37881 ft 505 kts 303°
2026-04-24 08:04 -1.07668 110.97002 37879 ft 505 kts 303°
2026-04-24 08:04 -1.03934 110.91083 37875 ft 505 kts 303°
2026-04-24 08:05 -1.00168 110.85117 37872 ft 504 kts 303°
2026-04-24 08:05 -0.96423 110.79186 37871 ft 503 kts 303°
2026-04-24 08:06 -0.92685 110.73266 37869 ft 504 kts 303°
2026-04-24 08:06 -0.88943 110.67317 37867 ft 505 kts 303°
2026-04-24 08:07 -0.85237 110.61374 37866 ft 504 kts 303°
2026-04-24 08:07 -0.81495 110.55372 37860 ft 503 kts 303°
2026-04-24 08:08 -0.77783 110.49422 37862 ft 504 kts 303°
2026-04-24 08:09 -0.72233 110.40527 37868 ft 503 kts 303°
2026-04-24 08:09 -0.68502 110.34550 37867 ft 502 kts 303°
2026-04-24 08:10 -0.64802 110.28621 37863 ft 502 kts 302°
2026-04-24 08:10 -0.61111 110.22708 37865 ft 503 kts 302°
2026-04-24 08:11 -0.57397 110.16756 37867 ft 502 kts 302°
2026-04-24 08:11 -0.53689 110.10816 37869 ft 501 kts 302°
2026-04-24 08:12 -0.50015 110.04931 37873 ft 501 kts 302°
2026-04-24 08:12 -0.46293 109.98968 37873 ft 500 kts 302°
2026-04-24 08:13 -0.42573 109.93009 37867 ft 500 kts 302°
2026-04-24 08:13 -0.38878 109.87090 37861 ft 500 kts 302°
2026-04-24 08:14 -0.35176 109.81159 37857 ft 501 kts 302°
2026-04-24 08:14 -0.31475 109.75230 37852 ft 500 kts 302°
2026-04-24 08:15 -0.27785 109.69318 37853 ft 501 kts 302°
2026-04-24 08:15 -0.24080 109.63387 37854 ft 500 kts 302°
2026-04-24 08:16 -0.20382 109.57463 37857 ft 500 kts 302°
2026-04-24 08:16 -0.16692 109.51553 37859 ft 500 kts 302°
2026-04-24 08:17 -0.13027 109.45682 37858 ft 500 kts 302°
2026-04-24 08:17 -0.09367 109.39727 37849 ft 499 kts 298°
2026-04-24 08:18 -0.07028 109.33200 37854 ft 500 kts 282°
2026-04-24 08:18 -0.05575 109.26411 37851 ft 500 kts 282°
2026-04-24 08:19 -0.04144 109.19634 37847 ft 501 kts 282°
2026-04-24 08:19 -0.02705 109.12816 37839 ft 500 kts 282°
2026-04-24 08:20 -0.01269 109.06008 37838 ft 500 kts 282°
2026-04-24 08:20 0.00169 108.99200 37843 ft 499 kts 281°
2026-04-24 08:21 0.01553 108.92352 37847 ft 500 kts 281°
2026-04-24 08:21 0.02921 108.85555 37849 ft 501 kts 281°
2026-04-24 08:22 0.04302 108.78700 37848 ft 501 kts 281°
2026-04-24 08:22 0.05686 108.71835 37849 ft 501 kts 281°
2026-04-24 08:23 0.07061 108.65015 37849 ft 501 kts 281°
2026-04-24 08:23 0.08437 108.58202 37850 ft 501 kts 281°
2026-04-24 08:24 0.09821 108.51340 37850 ft 501 kts 281°
2026-04-24 08:24 0.11201 108.44501 37849 ft 502 kts 281°
2026-04-24 08:25 0.12585 108.37642 37850 ft 503 kts 281°
2026-04-24 08:25 0.13963 108.30810 37846 ft 502 kts 281°
2026-04-24 08:26 0.15344 108.23965 37846 ft 503 kts 281°
2026-04-24 08:26 0.16718 108.17157 37847 ft 502 kts 281°
2026-04-24 08:27 0.18107 108.10275 37846 ft 502 kts 281°
2026-04-24 08:27 0.19487 108.03439 37847 ft 504 kts 281°
2026-04-24 08:28 0.20876 107.96554 37847 ft 503 kts 281°
2026-04-24 08:28 0.22263 107.89678 37849 ft 503 kts 281°
2026-04-24 08:29 0.23647 107.82819 37849 ft 504 kts 281°
2026-04-24 08:29 0.25028 107.75977 37849 ft 503 kts 281°
2026-04-24 08:30 0.26413 107.69112 37848 ft 502 kts 281°
2026-04-24 08:30 0.27791 107.62284 37849 ft 503 kts 281°
2026-04-24 08:31 0.29176 107.55415 37848 ft 503 kts 281°
2026-04-24 08:31 0.30557 107.48573 37849 ft 501 kts 281°
2026-04-24 08:32 0.31945 107.41688 37852 ft 501 kts 281°
2026-04-24 08:32 0.33320 107.34875 37856 ft 501 kts 281°
2026-04-24 08:33 0.34711 107.27978 37855 ft 501 kts 281°
2026-04-24 08:33 0.36082 107.21182 37855 ft 502 kts 281°
2026-04-24 08:34 0.37468 107.14311 37854 ft 501 kts 281°
2026-04-24 08:34 0.38847 107.07475 37853 ft 501 kts 281°
2026-04-24 08:35 0.40226 107.00639 37849 ft 500 kts 281°
2026-04-24 08:35 0.41603 106.93810 37849 ft 500 kts 281°
2026-04-24 08:36 0.42973 106.87007 37850 ft 500 kts 281°
2026-04-24 08:36 0.44339 106.80225 37851 ft 501 kts 281°
2026-04-24 08:37 0.45720 106.73365 37848 ft 499 kts 281°
2026-04-24 08:37 0.47085 106.66580 37851 ft 499 kts 281°
2026-04-24 08:38 0.48459 106.59757 37849 ft 499 kts 281°
2026-04-24 08:38 0.49826 106.52966 37850 ft 499 kts 281°
2026-04-24 08:39 0.51195 106.46163 37852 ft 499 kts 281°
2026-04-24 08:39 0.52574 106.39310 37850 ft 500 kts 281°
2026-04-24 08:40 0.53947 106.32484 37850 ft 499 kts 281°
2026-04-24 08:40 0.55307 106.25727 37847 ft 498 kts 281°
2026-04-24 08:41 0.56673 106.18939 37849 ft 498 kts 281°
2026-04-24 08:41 0.58035 106.12168 37849 ft 499 kts 281°
2026-04-24 08:42 0.59402 106.05378 37848 ft 498 kts 281°
2026-04-24 08:42 0.60765 105.98599 37848 ft 499 kts 281°
2026-04-24 08:43 0.62134 105.91798 37848 ft 499 kts 281°
2026-04-24 08:43 0.63500 105.85008 37847 ft 497 kts 281°
2026-04-24 08:44 0.64866 105.78214 37847 ft 498 kts 281°
2026-04-24 08:44 0.66225 105.71458 37849 ft 498 kts 281°
2026-04-24 08:45 0.67589 105.64676 37849 ft 498 kts 281°
2026-04-24 08:45 0.68957 105.57863 37850 ft 499 kts 281°
2026-04-24 08:46 0.70321 105.51086 37852 ft 498 kts 281°
2026-04-24 08:46 0.71689 105.44286 37856 ft 497 kts 281°
2026-04-24 08:47 0.73049 105.37535 37860 ft 496 kts 281°
2026-04-24 08:47 0.74426 105.30687 37866 ft 509 kts 281°
2026-04-24 08:48 0.75842 105.23655 37861 ft 516 kts 281°
2026-04-24 08:48 0.77253 105.16634 37858 ft 514 kts 281°
2026-04-24 08:49 0.78667 105.09601 37851 ft 514 kts 281°
2026-04-24 08:49 0.80081 105.02571 37849 ft 515 kts 281°
2026-04-24 08:50 0.81482 104.95606 37846 ft 514 kts 281°
2026-04-24 08:50 0.82898 104.88561 37846 ft 515 kts 281°
2026-04-24 08:51 0.84298 104.81598 37848 ft 514 kts 281°
2026-04-24 08:51 0.85707 104.74586 37850 ft 515 kts 281°
2026-04-24 08:52 0.87118 104.67567 37857 ft 515 kts 281°
2026-04-24 08:52 0.88529 104.60545 37862 ft 515 kts 281°
2026-04-24 08:53 0.89958 104.53550 37855 ft 514 kts 284°
2026-04-24 08:53 0.92555 104.46894 37868 ft 514 kts 296°
2026-04-24 08:54 0.95665 104.40450 37864 ft 514 kts 296°
2026-04-24 08:54 0.98772 104.34023 38010 ft 511 kts 296°
2026-04-24 08:55 1.01891 104.27568 37863 ft 514 kts 296°
2026-04-24 08:55 1.04875 104.21080 37851 ft 513 kts 289°
2026-04-24 08:56 1.06322 104.14130 37862 ft 515 kts 277°
2026-04-24 08:56 1.07110 104.07006 37859 ft 515 kts 276°
2026-04-24 08:57 1.07886 103.99907 37862 ft 514 kts 276°
2026-04-24 08:57 1.08668 103.92756 37860 ft 516 kts 276°
2026-04-24 08:58 1.08805 103.85594 37851 ft 515 kts 263°
2026-04-24 08:58 1.07911 103.78510 37855 ft 514 kts 262°
2026-04-24 08:59 1.06989 103.71459 37846 ft 515 kts 262°
2026-04-24 08:59 1.06062 103.64357 37841 ft 515 kts 262°
2026-04-24 09:00 1.05133 103.57241 37847 ft 514 kts 262°
2026-04-24 09:00 1.04210 103.50169 37849 ft 516 kts 262°
2026-04-24 09:01 1.03259 103.43065 37853 ft 516 kts 262°
2026-04-24 09:01 1.02297 103.35969 37857 ft 516 kts 262°
2026-04-24 09:02 1.01341 103.28890 37853 ft 515 kts 262°
2026-04-24 09:02 1.00406 103.21833 37845 ft 514 kts 265°
2026-04-24 09:03 1.00788 103.14696 37850 ft 515 kts 282°
2026-04-24 09:03 1.03007 103.07935 37852 ft 514 kts 291°
2026-04-24 09:04 1.05615 103.01251 37850 ft 515 kts 291°
2026-04-24 09:04 1.08210 102.94608 37850 ft 516 kts 291°
2026-04-24 09:05 1.10808 102.87955 37849 ft 514 kts 291°
2026-04-24 09:05 1.13427 102.81248 37848 ft 515 kts 291°
2026-04-24 09:06 1.16019 102.74606 37850 ft 514 kts 291°
2026-04-24 09:06 1.18621 102.67941 37848 ft 515 kts 291°
2026-04-24 09:07 1.21240 102.61228 37850 ft 515 kts 291°
2026-04-24 09:07 1.25180 102.51130 37848 ft 514 kts 291°
2026-04-24 09:08 1.27777 102.44474 37849 ft 514 kts 291°
2026-04-24 09:08 1.30371 102.37826 37851 ft 515 kts 291°
2026-04-24 09:09 1.32986 102.31121 37843 ft 514 kts 291°
2026-04-24 09:09 1.35593 102.24438 37844 ft 515 kts 291°
2026-04-24 09:10 1.38186 102.17789 37844 ft 514 kts 291°
2026-04-24 09:10 1.41218 102.11311 37849 ft 514 kts 300°
2026-04-24 09:11 1.44894 102.05141 37841 ft 515 kts 301°
2026-04-24 09:11 1.48567 101.98999 37838 ft 514 kts 301°
2026-04-24 09:12 1.52246 101.92841 37842 ft 514 kts 301°
2026-04-24 09:12 1.55919 101.86692 37840 ft 515 kts 301°
2026-04-24 09:13 1.59606 101.80518 37840 ft 514 kts 301°
2026-04-24 09:13 1.63242 101.74426 37840 ft 513 kts 301°
2026-04-24 09:14 1.66922 101.68261 37851 ft 513 kts 301°
2026-04-24 09:14 1.70580 101.62131 37856 ft 514 kts 301°
2026-04-24 09:15 1.74256 101.55975 37855 ft 515 kts 301°
2026-04-24 09:15 1.77940 101.49800 37851 ft 515 kts 301°
2026-04-24 09:16 1.81596 101.43671 37853 ft 515 kts 301°
2026-04-24 09:16 1.85285 101.37486 37853 ft 515 kts 301°
2026-04-24 09:17 1.88941 101.31358 37851 ft 513 kts 301°
2026-04-24 09:17 1.92623 101.25184 37848 ft 514 kts 301°
2026-04-24 09:18 1.96301 101.19016 37848 ft 515 kts 301°
2026-04-24 09:18 1.99993 101.12824 37849 ft 516 kts 301°
2026-04-24 09:19 2.03685 101.06632 37849 ft 517 kts 301°
2026-04-24 09:19 2.07376 101.00440 37849 ft 516 kts 301°
2026-04-24 09:20 2.11682 100.93217 37847 ft 515 kts 301°
2026-04-24 09:20 2.14733 100.88099 37846 ft 514 kts 301°
2026-04-24 09:21 2.18408 100.81933 37845 ft 515 kts 301°
2026-04-24 09:21 2.22088 100.75757 37844 ft 515 kts 301°
2026-04-24 09:22 2.25767 100.69582 37846 ft 515 kts 301°
2026-04-24 09:22 2.29444 100.63411 37844 ft 514 kts 301°
2026-04-24 09:23 2.33124 100.57232 37839 ft 513 kts 301°
2026-04-24 09:23 2.34917 100.54223 37449 ft 505 kts 301°
2026-04-24 09:23 2.36739 100.51164 36327 ft 510 kts 301°
2026-04-24 09:24 2.38579 100.48083 35281 ft 512 kts 301°
2026-04-24 09:24 2.40386 100.45058 34407 ft 512 kts 301°
2026-04-24 09:24 2.42218 100.41991 33536 ft 511 kts 300°
2026-04-24 09:24 2.44040 100.38939 32604 ft 512 kts 300°
2026-04-24 09:25 2.45865 100.35883 31726 ft 513 kts 300°
2026-04-24 09:25 2.47677 100.32848 30969 ft 510 kts 300°
2026-04-24 09:25 2.49504 100.29787 30463 ft 502 kts 300°
2026-04-24 09:25 2.51299 100.26782 29912 ft 496 kts 300°
2026-04-24 09:26 2.53042 100.23863 29335 ft 491 kts 300°
2026-04-24 09:26 2.54788 100.20937 28749 ft 486 kts 300°
2026-04-24 09:26 2.56514 100.18045 28172 ft 481 kts 300°
2026-04-24 09:26 2.58201 100.15218 27602 ft 477 kts 300°
2026-04-24 09:27 2.59905 100.12363 27016 ft 473 kts 300°
2026-04-24 09:27 2.61592 100.09534 26418 ft 470 kts 300°
2026-04-24 09:27 2.63254 100.06747 25831 ft 467 kts 300°
2026-04-24 09:27 2.64915 100.03964 25233 ft 463 kts 300°
2026-04-24 09:28 2.66545 100.01232 24644 ft 460 kts 300°
2026-04-24 09:28 2.68183 99.98486 24049 ft 457 kts 300°
2026-04-24 09:28 2.69801 99.95773 23449 ft 454 kts 301°
2026-04-24 09:28 2.71296 99.93005 22853 ft 451 kts 293°
2026-04-24 09:29 2.72365 99.90118 22420 ft 443 kts 288°
2026-04-24 09:29 2.73325 99.87221 22116 ft 434 kts 288°
2026-04-24 09:29 2.74270 99.84349 21799 ft 435 kts 288°
2026-04-24 09:29 2.75208 99.81499 21448 ft 433 kts 288°
2026-04-24 09:30 2.76150 99.78633 21090 ft 429 kts 288°
2026-04-24 09:30 2.77380 99.74892 20626 ft 427 kts 288°
2026-04-24 09:30 2.78005 99.72992 20386 ft 425 kts 288°
2026-04-24 09:30 2.78916 99.70219 20042 ft 423 kts 288°
2026-04-24 09:31 2.79839 99.67413 19690 ft 423 kts 288°
2026-04-24 09:31 2.80753 99.64631 19345 ft 419 kts 288°
2026-04-24 09:31 2.81654 99.61889 19007 ft 418 kts 288°
2026-04-24 09:31 2.82567 99.59113 18660 ft 415 kts 288°
2026-04-24 09:32 2.83458 99.56406 18326 ft 413 kts 288°
2026-04-24 09:32 2.84354 99.53681 17994 ft 411 kts 288°
2026-04-24 09:32 2.85240 99.50981 17660 ft 409 kts 288°
2026-04-24 09:32 2.86131 99.48267 17323 ft 407 kts 288°
2026-04-24 09:33 2.87001 99.45616 16995 ft 405 kts 288°
2026-04-24 09:33 2.87848 99.43039 16676 ft 403 kts 288°
2026-04-24 09:33 2.88727 99.40363 16346 ft 400 kts 288°
2026-04-24 09:33 2.89586 99.37745 16028 ft 399 kts 288°
2026-04-24 09:34 2.90453 99.35106 15706 ft 396 kts 288°
2026-04-24 09:34 2.91311 99.32493 15372 ft 392 kts 288°
2026-04-24 09:34 2.92162 99.29900 15046 ft 389 kts 288°
2026-04-24 09:34 2.93007 99.27325 14726 ft 387 kts 288°
2026-04-24 09:35 2.93840 99.24789 14419 ft 385 kts 288°
2026-04-24 09:35 2.94677 99.22241 14102 ft 382 kts 288°
2026-04-24 09:35 2.95493 99.19746 13806 ft 380 kts 288°
2026-04-24 09:35 2.96319 99.17228 13489 ft 379 kts 288°
2026-04-24 09:36 2.97175 99.14769 13181 ft 376 kts 293°
2026-04-24 09:36 2.98432 99.12475 12874 ft 374 kts 304°
2026-04-24 09:36 3.00077 99.10500 12543 ft 367 kts 314°
2026-04-24 09:36 3.01861 99.08695 12225 ft 359 kts 315°
2026-04-24 09:37 3.03620 99.06936 11911 ft 352 kts 315°
2026-04-24 09:37 3.05312 99.05249 11725 ft 341 kts 315°
2026-04-24 09:37 3.06982 99.03584 11507 ft 332 kts 315°
2026-04-24 09:37 3.08589 99.01981 11237 ft 325 kts 315°
2026-04-24 09:38 3.10192 99.00384 10946 ft 320 kts 316°
2026-04-24 09:38 3.11755 98.98830 10665 ft 315 kts 316°
2026-04-24 09:38 3.13309 98.97283 10353 ft 304 kts 316°
2026-04-24 09:38 3.14765 98.95834 10157 ft 295 kts 316°
2026-04-24 09:39 3.16219 98.94389 9851 ft 292 kts 316°
2026-04-24 09:39 3.17666 98.92947 9555 ft 289 kts 316°
2026-04-24 09:39 3.19081 98.91538 9276 ft 286 kts 316°
2026-04-24 09:39 3.20479 98.90145 9000 ft 283 kts 316°
2026-04-24 09:40 3.21880 98.88751 8725 ft 280 kts 316°
2026-04-24 09:40 3.23255 98.87382 8456 ft 279 kts 316°
2026-04-24 09:40 3.24632 98.86011 8233 ft 278 kts 316°
2026-04-24 09:40 3.26000 98.84649 8018 ft 276 kts 316°
2026-04-24 09:41 3.27360 98.83294 7777 ft 275 kts 315°
2026-04-24 09:41 3.28704 98.81955 7531 ft 274 kts 315°
2026-04-24 09:41 3.30060 98.80606 7242 ft 273 kts 315°
2026-04-24 09:41 3.31410 98.79264 6949 ft 270 kts 315°
2026-04-24 09:42 3.32755 98.77980 6696 ft 267 kts 316°
2026-04-24 09:42 3.34099 98.76707 6452 ft 263 kts 316°
2026-04-24 09:42 3.35426 98.75445 6169 ft 261 kts 316°
2026-04-24 09:42 3.36728 98.74202 5965 ft 256 kts 316°
2026-04-24 09:43 3.38018 98.72971 5671 ft 252 kts 316°
2026-04-24 09:43 3.39275 98.71771 5339 ft 249 kts 316°
2026-04-24 09:43 3.40522 98.70581 5082 ft 244 kts 316°
2026-04-24 09:43 3.41795 98.69447 4785 ft 243 kts 327°
2026-04-24 09:44 3.43327 98.68870 4501 ft 233 kts 353°
2026-04-24 09:44 3.44907 98.69011 4233 ft 222 kts 21°
2026-04-24 09:44 3.46174 98.69801 3989 ft 212 kts 39°
2026-04-24 09:44 3.47267 98.70747 3761 ft 205 kts 43°
2026-04-24 09:45 3.48294 98.71724 3537 ft 198 kts 44°
2026-04-24 09:45 3.49262 98.72675 3320 ft 193 kts 45°
2026-04-24 09:45 3.50213 98.73621 3114 ft 192 kts 45°
2026-04-24 09:45 3.51168 98.74573 2908 ft 191 kts 45°
2026-04-24 09:46 3.52101 98.75498 2703 ft 190 kts 45°
2026-04-24 09:46 3.53038 98.76430 2492 ft 189 kts 44°
2026-04-24 09:46 3.53977 98.77356 2272 ft 189 kts 44°
2026-04-24 09:46 3.54921 98.78294 2031 ft 188 kts 44°
2026-04-24 09:47 3.55846 98.79203 1807 ft 183 kts 45°
2026-04-24 09:47 3.56715 98.80071 1584 ft 169 kts 44°
2026-04-24 09:47 3.57527 98.80864 1381 ft 158 kts 45°
2026-04-24 09:47 3.58273 98.81610 1195 ft 146 kts 44°
2026-04-24 09:48 3.58988 98.82312 1012 ft 142 kts 44°
2026-04-24 09:48 3.59680 98.83004 831 ft 139 kts 44°
2026-04-24 09:48 3.60374 98.83685 651 ft 139 kts 44°
2026-04-24 09:48 3.61067 98.84373 470 ft 139 kts 44°
2026-04-24 09:49 3.61753 98.85053 291 ft 139 kts 44°
2026-04-24 09:49 3.62442 98.85726 109 ft 138 kts 44°
2026-04-24 09:49 3.63116 98.86394 40 ft 122 kts 43°
2026-04-24 09:49 3.63634 98.86903 39 ft 86 kts 45°
2026-04-24 09:50 3.63937 98.87206 39 ft 38 kts 45°
2026-04-24 09:50 3.64086 98.87421 39 ft 38 kts 69°
2026-04-24 09:50 3.64122 98.87543 39 ft 11 kts 74°
2026-04-24 09:50 3.64138 98.87598 39 ft 6 kts 74°
2026-04-24 09:51 3.64147 98.87630 39 ft 5 kts 73°
2026-04-24 09:51 3.64165 98.87672 39 ft 9 kts 61°
2026-04-24 09:51 3.64215 98.87735 39 ft 12 kts 45°
2026-04-24 09:51 3.64267 98.87786 39 ft 7 kts 44°
2026-04-24 09:52 3.64287 98.87805 39 ft 4 kts 44°
2026-04-24 09:52 3.64318 98.87835 39 ft 10 kts 44°
2026-04-24 09:52 3.64389 98.87904 39 ft 14 kts 45°
2026-04-24 09:52 3.64424 98.87955 39 ft 7 kts 94°
2026-04-24 09:53 3.64387 98.88011 39 ft 12 kts 132°
2026-04-24 09:53 3.64315 98.88088 39 ft 16 kts 134°
2026-04-24 09:53 3.64237 98.88168 39 ft 15 kts 134°
2026-04-24 09:53 3.64185 98.88200 39 ft 7 kts 192°
2026-04-24 09:54 3.64136 98.88169 39 ft 8 kts 222°
2026-04-24 09:54 3.64092 98.88126 39 ft 9 kts 224°
2026-04-24 09:54 3.64045 98.88080 39 ft 9 kts 225°
2026-04-24 09:54 3.63997 98.88031 39 ft 10 kts 225°
2026-04-24 09:55 3.63953 98.87987 39 ft 7 kts 225°
2026-04-24 09:55 3.63925 98.87960 39 ft 5 kts 218°
2026-04-24 09:55 3.63892 98.87961 39 ft 5 kts 149°
2026-04-24 09:55 3.63863 98.87985 39 ft 5 kts 138°
2026-04-24 09:56 3.63842 98.88001 39 ft 2 kts 155°
2026-04-24 09:56 3.63828 98.88002 39 ft 1 kts 193°
2026-04-24 09:56 3.63810 98.87994 39 ft 5 kts 211°
2026-04-24 09:56 3.63791 98.87978 39 ft 1 kts 219°
2026-04-24 09:57 3.63781 98.87971 39 ft 2 kts 223°
2026-04-24 09:57 3.63779 98.87968 39 ft 0 kts 223°